Change the Weather History Date:

Sunday, February 24, 2013

  Actual Average Record
Temperature  
Mean Temperature 28 °F -  
Max Temperature 34 °F 35 °F 60 °F (1984)
Min Temperature 21 °F 22 °F -7 °F (1967)
Degree Days  
Heating Degree Days 38    
Moisture  
Dew Point 22 °F    
Average Humidity 80    
Maximum Humidity 100    
Minimum Humidity 61    
Precipitation  
Precipitation 0.00 in - - ()
Sea Level Pressure  
Sea Level Pressure 30.05 in    
Wind  
Wind Speed 7 mph (West)    
Max Wind Speed 12 mph    
Max Gust Speed 20 mph    
Visibility 9 miles    
Events      
Averages and records for this station are not official NWS values.
T = Trace of Precipitation, MM = Missing Value Source: NWS Daily Summary

Daily Weather History Graph

Daily Weather History Graph

Search for Another Location

Airport or City:

Trip Planner

Search our weather history database for the weather conditions in past years. The results will help you decide how hot, cold, wet, or windy it might be!

Date:

Astronomy

Feb. 24, 2013 Rise Set
Actual Time 6:35 AM CST 5:33 PM CST
Civil Twilight 6:06 AM CST 6:02 PM CST
Nautical Twilight 5:33 AM CST 6:36 PM CST
Astronomical Twilight 5:00 AM CST 7:09 PM CST
Moon 4:44 PM CST (2/24) 5:33 AM CST (2/24)
Length of Visible Light 11h 56m
Length of Day
10h 57m
Waxing Gibbous, 99% of the Moon is Illuminated
Feb 24
Waxing Gibbous
Feb 25
Full
Mar 4
Last Quarter
Mar 11
New
Mar 19
First Quarter

Hourly Weather History & Observations

Time (CST) Temp. Windchill Dew Point Humidity Pressure Visibility Wind Dir Wind Speed Gust Speed Precip Events Conditions
12:53 AM 26.1 °F 16.2 °F 21.0 °F 81% 29.92 in 10.0 mi West 10.4 mph - N/A   Overcast
1:14 AM 26.6 °F 19.1 °F 21.2 °F 80% 29.90 in 10.0 mi West 6.9 mph - N/A   Overcast
1:48 AM 26.6 °F 16.8 °F 21.2 °F 80% 29.90 in 10.0 mi WNW 10.4 mph - N/A   Overcast
1:53 AM 26.1 °F 16.8 °F 21.0 °F 81% 29.93 in 10.0 mi WNW 9.2 mph - N/A   Overcast
2:53 AM 26.1 °F 15.6 °F 21.9 °F 84% 29.94 in 10.0 mi WNW 11.5 mph 19.6 mph N/A   Overcast
3:53 AM 26.1 °F 16.2 °F 21.9 °F 84% 29.95 in 8.0 mi WNW 10.4 mph - 0.00 in   Overcast
4:53 AM 26.1 °F 17.6 °F 21.9 °F 84% 29.98 in 9.0 mi WNW 8.1 mph - N/A   Overcast
5:53 AM 26.1 °F 17.6 °F 21.9 °F 84% 30.00 in 10.0 mi WNW 8.1 mph - N/A   Overcast
6:53 AM 26.1 °F 17.6 °F 21.9 °F 84% 30.02 in 8.0 mi WNW 8.1 mph - N/A   Overcast
7:00 AM 26.6 °F 18.2 °F 21.2 °F 80% 29.99 in 9.0 mi WNW 8.1 mph - N/A   Overcast
7:22 AM 26.6 °F 18.2 °F 21.2 °F 80% 30.00 in 9.0 mi WNW 8.1 mph - N/A   Overcast
7:53 AM 26.1 °F 19.4 °F 21.9 °F 84% 30.04 in 9.0 mi WNW 5.8 mph - N/A   Overcast
8:53 AM 27.0 °F 19.5 °F 21.9 °F 81% 30.07 in 9.0 mi WNW 6.9 mph - N/A   Overcast
9:53 AM 28.9 °F 21.1 °F 23.0 °F 78% 30.08 in 9.0 mi NW 8.1 mph - N/A   Overcast
10:53 AM 30.9 °F 24.3 °F 24.1 °F 76% 30.09 in 9.0 mi NW 6.9 mph - N/A   Mostly Cloudy
11:53 AM 30.9 °F - 24.1 °F 76% 30.09 in 10.0 mi Calm Calm - N/A   Partly Cloudy
12:53 PM 32.0 °F - 23.0 °F 69% 30.09 in 10.0 mi Calm Calm - N/A   Mostly Cloudy
1:53 PM 32.0 °F 28.7 °F 23.0 °F 69% 30.10 in 10.0 mi SW 3.5 mph - N/A   Clear
2:53 PM 34.0 °F 29.8 °F 21.9 °F 61% 30.10 in 10.0 mi West 4.6 mph - N/A   Clear
3:53 PM 33.1 °F 30.0 °F 21.0 °F 61% 30.10 in 10.0 mi WNW 3.5 mph - N/A   Partly Cloudy
4:53 PM 30.9 °F 25.2 °F 19.9 °F 64% 30.12 in 10.0 mi West 5.8 mph - N/A   Clear
5:53 PM 26.1 °F - 19.0 °F 75% 30.13 in 10.0 mi Calm Calm - N/A   Overcast
6:53 PM 28.9 °F 25.2 °F 21.9 °F 75% 30.15 in 10.0 mi South 3.5 mph - N/A   Overcast
7:53 PM 28.9 °F 22.8 °F 24.1 °F 82% 30.16 in 10.0 mi South 5.8 mph - N/A   Overcast
8:53 PM 28.0 °F 21.7 °F 24.1 °F 85% 30.15 in 9.0 mi South 5.8 mph - N/A   Mostly Cloudy
9:53 PM 24.1 °F 19.7 °F 21.9 °F 91% 30.15 in 7.0 mi South 3.5 mph - N/A   Scattered Clouds
10:53 PM 21.9 °F - 21.9 °F 100% 30.16 in 5.0 mi Calm Calm - N/A   Overcast
11:53 PM 21.0 °F - 21.0 °F 100% 30.16 in 5.0 mi Calm Calm - N/A   Overcast